STARLINK-1151, 45081

Orbit data source: Space-Track

STARLINK-1151, 45081 is a payload satellite owned by SpaceX/Seattle (US) in LEO that was launched on Wed, 29 Jan 2020 UTC via an FALCON 9 launch vehicle from the Air Force Eastern Test Range (AFETR). Payload-class satellites include a variety of spacecraft equipped with specific instruments for various scientific and technological missions. These include communications satellites like Starlink; space stations such as the ISS; scientific satellites like the Hubble; Earth observation satellites from companies like Planet Labs, Umbra, and HawkEye 360; GPS; miniature CubeSats for education and research; and military/defense satellites.

Loading next visibility...
Identifier
45081, 2020-006AP
Orbit
LEO
Country
Flag of USUS
Related business
Manufacturer
SpaceX/Seattle
Mission
Operational Commercial Communications
Bus & Motor
STARLINK, Unknown motor
Mass
260 kg wet, ~248 kg dry
Launch date (UTC)
2020-01-29 (6 years ago)
Launch vehicle
FALCON 9
Launch site
Air Force Eastern Test Range (AFETR)
Object type
Payload
Rocket body
Debris
Shape & HBR
Box + 1 Pan, 4.4 m
Radar Cross Section
13.562 m², Large (>1 m²)

Expand to show TLE details & history
Last TLE update: 15 hours ago

TLE from 15 hours ago
0 STARLINK-1151
1 45081U 20006AP  25245.67412816  .00004443  00000-0  31689-3 0  9994
2 45081  53.0556  30.7273 0001435  82.8365 277.2787 15.06413791308403
Epoch: 2025-09-02T16:10Z
TLE epoch observation values (Epoch: 2025-09-02T16:10:44.673Z)
Latitude
-0.00001°
Longitude
165.97918°
Altitude
547.923 km
Speed
7.589 km/s
True Right ascension
02h 02m 54s
True Declination
0° 00' 00"
Sunlit
Object was in full shadow at epoch
Visualization orbit readout
Latitude
Unknown
Longitude
Unknown
Altitude
Unknown
Speed
Unknown
Apparent Right ascension
Unknown
Apparent Declination
Unknown
Sunlit
N/A
Visualization observer readout
Local Sidereal Time
22:58:38
Azimuth
Unknown
Elevation
Unknown
Doppler factor
Unknown
Orbital elements
Apogee altitude
548.434 km
Perigee altitude
546.446 km
Semi-major axis
6,925.577 km
Eccentricity
0.00014
Inclination
53.0556°
RAAN
30.7273°
Arg. of periapsis
82.8365°
True anomaly
277.26239°
Mean anomaly
277.2787°
Eccentric anomaly
277.27054°
Mean motion
3.76582 °/min
Orbital period
95.6 mins
BSTAR
0.00031689
Loading maneuver chart data...
Computing Atmospheric mass density...

Documentation

Showing up to 5 results
|